603  
ASUS44 KBMX 250610  
RWRAL  
 
ALABAMA REGIONAL WEATHER ROUNDUP  
NATIONAL WEATHER SERVICE BIRMINGHAM AL  
100 AM CDT MON OCT 25 2021  
 
NOTE: "FAIR" INDICATES FEW OR NO CLOUDS BELOW 12,000 FEET  
WITH NO SIGNIFICANT WEATHER AND/OR S TO VISIBILITY
.  
 
THE REMARK "TC" DENOTES TEMPERATURE IN DEGREES CELSIUS.  
 
ALZ001>011-014-016>018-020-250700-  
NORTH ALABAMA  
 
CITY SKY/WX TMP DP RH WIND PRES REMARKS
 
MUSCLE SHOALS PTCLDY 66 57 72 S10 29.91F  
6HR MIN TEMP: 62; 6HR MAX TEMP: 68;  
 
HUNTSVILLE PTCLDY 62 55 77 S12 29.95F  
6HR MIN TEMP: 56; 6HR MAX TEMP: 63;  
 
DECATUR CLEAR 62 55 77 SE10 29.95F  
6HR MIN TEMP: 55; 6HR MAX TEMP: 64;  
 
HALEYVILLE CLOUDY 61 57 87 S10G16 29.98S  
6HR MIN TEMP: 60; 6HR MAX TEMP: 63;  
 
GADSDEN N/A 55 55 100 SW3 30.00F  
6HR MIN TEMP: 53; 6HR MAX TEMP: 66;  
 

 
 
ALZ012-013-022-023-030>036-040>044-250700-  
WEST CENTRAL ALABAMA  
 
CITY SKY/WX TMP DP RH WIND PRES REMARKS
 
TUSCALOOSA PTCLDY 65 60 84 VRB3 29.96F  
6HR MIN TEMP: 61; 6HR MAX TEMP: 68;  
 
DEMOPOLIS NOT AVBL  

 
 
ALZ015-024>026-033>036-041>044-250700-  
CENTRAL ALABAMA  
 
CITY SKY/WX TMP DP RH WIND PRES REMARKS
 
BIRMINGHAM PTCLDY 64 57 78 S3 29.98F  
6HR MIN TEMP: 64; 6HR MAX TEMP: 68;  
 
MONTGOMERY CLEAR 64 61 90 NE3 29.98F  
6HR MIN TEMP: 63; 6HR MAX TEMP: 69;  
 
SHELBY CO ARPT CLEAR 59 57 93 CALM 29.98F  
6HR MIN TEMP: 59; 6HR MAX TEMP: 67;  
 
MAXWELL AFB CLEAR 63 62 96 CALM 29.96F  
6HR MIN TEMP: 63; 6HR MAX TEMP: 69;  
 
GREENVILLE LGT RAIN 74 61 63 CALM 29.97F  
6HR MIN TEMP: 74; 6HR MAX TEMP: 84; 6HR PCP: TRACE;  
 
SELMA NOT AVBL  
PRATTVILLE FAIR 61 61 100 CALM 29.97F  
6HR MIN TEMP: 61; 6HR MAX TEMP: 67;  
 
BESSEMER FAIR 61 58 90 SE6 29.99F  
6HR MIN TEMP: 61; 6HR MAX TEMP: 66;  
 
TALLADEGA FAIR 55 55 99 NE3 29.99F  
6HR MIN TEMP: 55; 6HR MAX TEMP: 64;  
 
PELL CITY NOT AVBL  
SYLACAUGA CLOUDY 57 56 98 CALM 29.99F  
6HR MIN TEMP: 56; 6HR MAX TEMP: 65;  
 

 
 
ALZ019-021-028-029-037-038-045>048-250700-  
EAST CENTRAL ALABAMA  
 
CITY SKY/WX TMP DP RH WIND PRES REMARKS
 
ANNISTON PTCLDY 60 55 83 NE5 29.99F  
6HR MIN TEMP: 60; 6HR MAX TEMP: 67;  
 
ALEXANDER CITY CLEAR 60 59 97 CALM 30.00F  
6HR MIN TEMP: 60; 6HR MAX TEMP: 65;  
 
AUBURN PTCLDY 65 60 84 SE7 30.01F  
6HR MIN TEMP: 65; 6HR MAX TEMP: 68; 6HR PCP: TRACE;  
 

 
 
ALZ051>064-250700-  
SOUTHWEST ALABAMA  
 
CITY SKY/WX TMP DP RH WIND PRES REMARKS
 
MOBILE MOCLDY 70 68 93 E7 29.96S  
6HR MIN TEMP: 69; 6HR MAX TEMP: 71;  
 
BROOKLEY FIELD CLOUDY 73 69 87 SE7 29.97S  
6HR MIN TEMP: 72; 6HR MAX TEMP: 74; 6HR PCP: TRACE;  
 
EVERGREEN PTCLDY 67 63 87 CALM 29.98S  
6HR MIN TEMP: 67; 6HR MAX TEMP: 71;  
 

 
 
ALZ049-050-065>069-250700-  
SOUTHEAST ALABAMA  
 
CITY SKY/WX TMP DP RH WIND PRES REMARKS
 
DOTHAN CLOUDY 68 65 90 E8 30.02F  
6HR MIN TEMP: 68; 6HR MAX TEMP: 72; 6HR PCP: 0.04;  
 
OZARK PTCLDY 68 65 90 E5 29.98F  
6HR MIN TEMP: 68; 6HR MAX TEMP: 70; 6HR PCP: TRACE;  
 
TROY CLOUDY 67 63 87 CALM 29.99F  
6HR MIN TEMP: 67; 6HR MAX TEMP: 73;  
 
EUFAULA CLOUDY 67 62 84 CALM 30.00F  
6HR MIN TEMP: 66; 6HR MAX TEMP: 72; 6HR PCP: TRACE;  
 

 
 
 
CLICK HERE TO GO TO PREVIOUS BULLETINS.

The Nexlab AL Page Main Text Page